Home > Weather > Tabriz > Past weeks

Flag for Iran Past Weather in Tabriz, Iran — Yesterday and Last 2 Weeks

Now
63 °F

Scattered clouds.


Feels Like: 63 °F
Forecast: 54 / 73 °F
Wind: 2 mph from North

Location: Tabriz Airport

Current Time: May 31, 2016 at 10:34:52 PM

Latest Report: May 31, 2016 at 10:00 PM


Visibility: N/A

Pressure: 29.95 "Hg (25.43 "Hg at 1388m altitude)

Humidity: 49%

Dew Point: 43 °F

Location of TabrizLocation

Past Weather in Tabriz — Graph

°F

Tabriz Temperature Yesterday

Maximum temperature yesterday: 73 °F (at 2:00 PM)
Minimum temperature yesterday: 50 °F (at 4:00 AM)
Average temperature yesterday: 63 °F

High & Low Weather Summary for the Past Weeks

 TemperatureHumidityPressure
High86 °F (May 28, 3:30 PM)100% (May 20, 5:30 AM)30.12 "Hg (May 20, 5:30 AM)
Low34 °F (May 20, 5:30 AM)13% (May 24, 7:30 PM)29.77 "Hg (May 24, 5:30 PM)
Average67 °F40%29.96 "Hg
* Reported May 16 8:30 PM — May 31 9:00 PM, Tabriz, Weather by CustomWeather, © 2016

Note: Actual official high and low records may vary slightly from our data, if they occured in-between our weather recording intervals... More about our weather records

Advertising

Tabriz Weather History for the Previous 24 Hours

Scroll right to see more
 ConditionsComfort  
Time TempWeatherWind HumidityBarometerVisibility
9:00 PM
Tue, May 31
66 °FScattered clouds.5 mph40%29.95 "HgN/A
8:30 PM68 °FScattered clouds.5 mph38%29.95 "HgN/A
8:00 PM68 °FPassing clouds.7 mph38%29.95 "HgN/A
7:30 PM70 °FThunderstorms. Passing clouds.9 mph31%29.95 "HgN/A
7:00 PM70 °FScattered clouds.14 mph31%29.95 "HgN/A
6:30 PM70 °FPassing clouds.7 mph31%29.95 "HgN/A
6:00 PM72 °FPassing clouds.7 mph29%29.95 "HgN/A
5:30 PM72 °FPassing clouds.9 mph29%29.95 "HgN/A
5:00 PM72 °FPassing clouds.5 mph29%29.95 "HgN/A
4:30 PM72 °FPassing clouds.7 mph29%29.95 "HgN/A
4:00 PM72 °FThunderstorms. Scattered clouds.14 mph33%29.95 "HgN/A
3:30 PM68 °FThunderstorms. Scattered clouds.16 mph38%29.95 "HgN/A
3:00 PM68 °FThunderstorms. Scattered clouds.18 mph38%29.95 "HgN/A
2:30 PM70 °FScattered showers. Scattered clouds.14 mph33%29.95 "HgN/A
2:00 PM72 °FScattered showers. Scattered clouds.12 mph36%29.95 "HgN/A
1:30 PM73 °FScattered clouds.5 mph33%29.95 "HgN/A
1:00 PM72 °FScattered clouds.7 mph33%29.95 "HgN/A
12:30 PM70 °FScattered clouds.7 mph35%29.95 "HgN/A
12:00 PM70 °FScattered clouds.5 mph33%29.98 "HgN/A
11:30 AM68 °FPassing clouds.7 mph35%29.98 "HgN/A
11:00 AM66 °FScattered clouds.5 mph37%29.98 "HgN/A
10:30 AM68 °FPassing clouds.9 mph38%29.98 "HgN/A
10:00 AM66 °FPassing clouds.9 mph37%29.98 "HgN/A
9:30 AM64 °FPassing clouds.2 mph40%29.98 "HgN/A
9:00 AM63 °FScattered clouds.5 mph42%29.98 "HgN/A
8:30 AM59 °FScattered clouds.5 mph45%29.98 "HgN/A
8:00 AM59 °FScattered clouds.7 mph55%29.98 "HgN/A
7:30 AM57 °FPassing clouds.7 mph48%29.98 "HgN/A
7:00 AM55 °FPassing clouds.7 mph55%29.98 "HgN/A
6:30 AM54 °FPassing clouds.7 mph54%29.98 "HgN/A
6:00 AM52 °FPassing clouds.7 mph58%29.95 "HgN/A
5:30 AM54 °FPassing clouds.7 mph54%29.95 "HgN/A
5:00 AM54 °FPassing clouds.7 mph54%29.95 "HgN/A
4:30 AM52 °FPassing clouds.7 mph58%29.95 "HgN/A
4:00 AM54 °FPassing clouds.5 mph54%29.98 "HgN/A
3:30 AM52 °FPassing clouds.5 mph58%29.98 "HgN/A
3:00 AM52 °FPassing clouds.7 mph58%29.95 "HgN/A
2:30 AM54 °FPassing clouds.5 mph63%29.95 "HgN/A
2:00 AM54 °FPassing clouds.No wind63%29.98 "HgN/A
1:30 AM55 °FPassing clouds.No wind59%29.98 "HgN/A
1:00 AM54 °FPassing clouds.2 mph63%29.98 "HgN/A
12:30 AM57 °FPassing clouds.5 mph55%29.98 "HgN/A
12:00 AM59 °FPassing clouds.5 mph48%29.98 "HgN/A
11:30 PM
Mon, May 30
55 °FPassing clouds.2 mph55%29.98 "HgN/A
11:00 PM55 °FPassing clouds.2 mph55%29.98 "HgN/A
10:30 PM59 °FPartly cloudy.5 mph48%29.98 "HgN/A
10:00 PM61 °FBroken clouds.9 mph45%29.98 "HgN/A
Weather by CustomWeather, © 2016

See weather overviewHow to use our weather pages